Location: *
(51.1248°S, 108.4023°W)
Time: 04:23:08
(UTC+00:00)

COSMO-SKYMED 1 - Pass Details

Date: 15 June 2021
Orbit: 621 x 624 km, 97.9° (Epoch: 31 July)

Event Time Altitude Azimuth Distance (km) Brightness Sun altitude
Rises 14:27:42 0° 174° (S) 2,951 5.8 -7.3°
Reaches altitude 10° 14:30:07 10° 184° (S) 2,036 4.9 -6.9°
Maximum altitude 14:33:58 29° 244° (WSW) 1,159 3.4 -6.4°
Drops below altitude 10° 14:37:46 10° 304° (NW) 2,015 4.9 -5.9°
Sets 14:40:09 0° 315° (NW) 2,914 5.9 -5.6°
